QPF
0.00 0.00 0.00 0.00 0.00 0.00 0.00 0.00 0.00 0.00 0.00 0.00 0.00 0.00 0.00 0.00 0.00 0.00 0.00 0.00 0.00 0.00 0.00 0.00 0.00 0.00 0.00 0.00 0.00 0.00 0.00 0.00 0.00 0.00 0.00 0.00 0.00 0.00 0.00 0.00 0.00 0.00 0.00 0.00 0.00
0.00 0.00 0.00 0.00 0.00 0.00 0.00 0.00 0.00 0.00 0.00 0.00 0.00 0.00 0.00 0.00 0.00 0.00 0.00 0.00 0.00 0.00 0.00 0.00 0.00 0.00 0.00 0.00 0.00 0.00 0.00 0.00 0.00 0.00 0.00 0.00 0.00 0.00 0.00 0.00 0.00 0.00 0.00 0.00 0.00
0.00 0.00 0.00 0.00 0.00 0.00 0.00 0.00 0.00 0.00 0.00 0.00 0.00 0.00 0.00 0.00 0.00 0.00 0.00 0.00 0.00 0.00 0.00 0.00 0.00 0.00 0.00 0.00 0.00 0.00 0.00 0.00 0.00 0.00 0.00 0.00 0.00 0.00 0.00 0.00 0.00 0.00 0.00 0.00 0.00
0.00 0.00 0.00 0.00 0.00 0.00 0.00 0.00 0.00 0.00 0.00 0.00 0.00 0.00 0.00 0.00 0.00 0.00 0.00 0.00 0.00 0.00 0.00 0.00 0.00 0.00 0.00 0.00 0.00 0.00 0.00 0.00 0.00 0.00 0.00 0.00 0.00 0.00 0.00 0.00 0.00 0.00 0.00 0.00 0.00
0.00 0.00 0.00 0.00 0.00 0.00 0.00 0.00 0.00 0.00 0.00 0.00 0.00 0.00 0.00 0.00 0.00 0.00 0.00 0.00 0.00 0.00 0.00 0.00 0.00 0.00 0.00 0.00 0.00 0.00 0.00 0.00 0.00 0.00 0.00 0.00 0.00 0.00 0.00 0.00 0.00 0.00 0.00 0.00 0.00
0.00 0.00 0.00 0.00 0.00 0.00 0.00 0.00 0.00 0.00 0.00 0.00 0.00 0.00 0.00 0.00 0.00 0.00 0.00 0.00 0.00 0.00 0.00 0.00 0.00 0.00 0.00 0.00 0.00 0.00 0.00 0.00 0.00 0.00 0.00 0.00 0.00 0.00 0.00 0.00 0.00 0.00 0.00 0.00 0.00
0.00 0.00 0.00 0.00 0.00 0.00 0.00 0.00 0.00 0.00 0.00 0.00 0.00 0.00 0.00 0.00 0.00 0.00 0.00 0.00 0.00 0.00 0.00 0.00 0.00 0.00 0.00 0.00 0.00 0.00 0.00 0.00 0.00 0.00 0.00 0.00 0.00 0.00 0.00 0.00 0.00 0.00 0.00 0.00 0.00
0.00 0.00 0.00 0.00 0.00 0.00 0.00 0.00 0.00 0.00 0.00 0.00 0.00 0.00 0.00 0.00 0.00 0.00 0.00 0.00 0.00 0.00 0.00 0.00 0.00 0.00 0.00 0.00 0.00 0.00 0.00 0.00 0.00 0.00 0.00 0.00 0.00 0.00 0.00 0.00 0.00 0.00 0.00 0.00 0.00
0.00 0.00 0.00 0.00 0.00 0.00 0.00 0.00 0.00 0.00 0.00 0.00 0.00 0.00 0.00 0.00 0.00 0.00 0.00 0.00 0.00 0.00 0.00 0.00 0.00 0.00 0.00 0.00 0.00 0.00 0.00 0.00 0.00 0.00 0.00 0.00 0.00 0.00 0.00 0.00 0.00 0.00 0.00 0.00 0.00
0.00 0.00 0.00 0.00 0.00 0.00 0.00 0.00 0.00 0.00 0.00 0.00 0.00 0.00 0.00 0.00 0.00 0.00 0.00 0.00 0.00 0.00 0.00 0.00 0.00 0.00 0.00 0.00 0.00 0.00 0.00 0.00 0.00 0.00 0.00 0.00 0.00 0.00 0.00 0.00 0.00 0.00 0.00 0.00 0.00
0.00 0.00 0.00 0.00 0.00 0.00 0.00 0.00 0.00 0.00 0.00 0.00 0.00 0.00 0.00 0.00 0.00 0.00 0.00 0.00 0.00 0.00 0.00 0.00 0.00 0.00 0.00 0.00 0.00 0.00 0.00 0.00 0.00 0.00 0.00 0.00 0.00 0.00 0.00 0.00 0.00 0.00 0.00 0.00 0.00
0.00 0.00 0.00 0.00 0.00 0.00 0.00 0.00 0.00 0.00 0.00 0.00 0.00 0.00 0.00 0.00 0.00 0.00 0.00 0.00 0.00 0.00 0.00 0.00 0.00 0.00 0.00 0.00 0.00 0.00 0.00 0.00 0.00 0.00 0.00 0.00 0.00 0.00 0.00 0.00 0.00 0.00 0.00 0.00 0.00
0.00 0.00 0.00 0.00 0.00 0.00 0.00 0.00 0.00 0.00 0.00 0.00 0.00 0.00 0.00 0.00 0.00 0.00 0.00 0.00 0.00 0.00 0.00 0.00 0.00 0.00 0.00 0.00 0.00 0.00 0.00 0.00 0.00 0.00 0.00 0.00 0.00 0.00 0.00 0.00 0.00 0.00 0.00 0.00 0.00
0.00 0.00 0.00 0.00 0.00 0.00 0.00 0.00 0.00 0.00 0.00 0.00 0.00 0.00 0.00 0.00 0.00 0.00 0.00 0.00 0.00 0.00 0.00 0.00 0.00 0.00 0.00 0.00 0.00 0.00 0.00 0.00 0.00 0.00 0.00 0.00 0.00 0.00 0.00 0.00 0.00 0.00 0.00 0.00 0.00
0.00 0.00 0.00 0.00 0.00 0.00 0.00 0.00 0.00 0.00 0.00 0.00 0.00 0.00 0.00 0.00 0.00 0.00 0.00 0.00 0.00 0.00 0.00 0.00 0.00 0.00 0.00 0.00 0.00 0.00 0.00 0.00 0.00 0.00 0.00 0.00 0.00 0.00 0.00 0.00 0.00 0.00 0.00 0.00 0.00
0.00 0.00 0.00 0.00 0.00 0.00 0.00 0.00 0.00 0.00 0.00 0.00 0.00 0.00 0.00 0.00 0.00 0.00 0.00 0.00 0.00 0.00 0.00 0.00 0.00 0.00 0.00 0.00 0.00 0.00 0.00 0.00 0.00 0.00 0.00 0.00 0.00 0.00 0.00 0.00 0.00 0.00 0.00 0.00 0.00
0.00 0.00 0.00 0.00 0.00 0.00 0.00 0.00 0.00 0.00 0.00 0.00 0.00 0.00 0.00 0.00 0.00 0.00 0.00 0.00 0.00 0.00 0.00 0.00 0.00 0.00 0.00 0.00 0.00 0.00 0.00 0.00 0.00 0.00 0.00 0.00 0.00 0.00 0.00 0.00 0.00 0.00 0.00 0.00 0.00
0.00 0.00 0.00 0.00 0.00 0.00 0.00 0.00 0.00 0.00 0.00 0.00 0.00 0.00 0.00 0.00 0.00 0.00 0.00 0.00 0.00 0.00 0.00 0.00 0.00 0.00 0.00 0.00 0.00 0.00 0.00 0.00 0.00 0.00 0.00 0.00 0.00 0.00 0.00 0.00 0.00 0.00 0.00 0.00 0.00
0.00 0.00 0.00 0.00 0.00 0.00 0.00 0.00 0.00 0.00 0.00 0.00 0.00 0.00 0.00 0.00 0.00 0.00 0.00 0.00 0.00 0.00 0.00 0.00 0.00 0.00 0.00 0.00 0.00 0.00 0.00 0.00 0.00 0.00 0.00 0.00 0.00 0.00 0.00 0.00 0.00 0.00 0.00 0.00 0.00
0.00 0.00 0.00 0.00 0.00 0.00 0.00 0.00 0.00 0.00 0.00 0.00 0.00 0.00 0.00 0.00 0.00 0.00 0.00 0.00 0.00 0.00 0.00 0.00 0.00 0.00 0.00 0.00 0.00 0.00 0.00 0.00 0.00 0.00 0.00 0.00 0.00 0.00 0.00 0.00 0.00 0.00 0.00 0.00 0.00
0.00 0.00 0.00 0.00 0.00 0.00 0.00 0.00 0.00 0.00 0.00 0.00 0.00 0.00 0.00 0.00 0.00 0.00 0.00 0.00 0.00 0.00 0.00 0.00 0.00 0.00 0.00 0.00 0.00 0.00 0.00 0.00 0.00 0.00 0.00 0.00 0.00 0.00 0.00 0.00 0.00 0.00 0.00 0.00 0.00
0.00 0.00 0.00 0.00 0.00 0.00 0.00 0.00 0.00 0.00 0.00 0.00 0.00 0.00 0.00 0.00 0.00 0.00 0.00 0.00 0.00 0.00 0.00 0.00 0.00 0.00 0.00 0.00 0.00 0.00 0.00 0.00 0.00 0.00 0.00 0.00 0.00 0.00 0.00 0.00 0.00 0.00 0.00 0.00 0.00
0.00 0.00 0.00 0.00 0.00 0.00 0.00 0.00 0.00 0.00 0.00 0.00 0.00 0.00 0.00 0.00 0.00 0.00 0.00 0.00 0.00 0.00 0.00 0.00 0.00 0.00 0.00 0.00 0.00 0.00 0.00 0.00 0.00 0.00 0.00 0.00 0.00 0.00 0.00 0.00 0.00 0.00 0.00 0.00 0.00
0.00 0.00 0.00 0.00 0.00 0.00 0.00 0.00 0.00 0.00 0.00 0.00 0.00 0.00 0.00 0.00 0.00 0.00 0.00 0.00 0.00 0.00 0.00 0.00 0.00 0.00 0.00 0.00 0.00 0.00 0.00 0.00 0.00 0.00 0.00 0.00 0.00 0.00 0.00 0.00 0.00 0.00 0.00 0.00 0.00
0.00 0.00 0.00 0.00 0.00 0.00 0.00 0.00 0.00 0.00 0.00 0.00 0.00 0.00 0.00 0.00 0.00 0.00 0.00 0.00 0.00 0.00 0.00 0.00 0.00 0.00 0.00 0.00 0.00 0.00 0.00 0.00 0.00 0.00 0.00 0.00 0.00 0.00 0.00 0.00 0.00 0.00 0.00 0.00 0.00
0.00 0.00 0.00 0.00 0.00 0.00 0.00 0.00 0.00 0.00 0.00 0.00 0.00 0.00 0.00 0.00 0.00 0.00 0.00 0.00 0.00 0.00 0.00 0.00 0.00 0.00 0.00 0.00 0.00 0.00 0.00 0.00 0.00 0.00 0.00 0.00 0.00 0.00 0.00 0.00 0.01 0.00 0.01 0.01 0.02
0.00 0.00 0.00 0.00 0.00 0.00 0.00 0.00 0.00 0.00 0.00 0.00 0.00 0.00 0.00 0.00 0.00 0.00 0.00 0.00 0.00 0.00 0.00 0.00 0.00 0.00 0.00 0.00 0.00 0.00 0.00 0.00 0.00 0.00 0.00 0.00 0.00 0.00 0.00 0.02 0.03 0.03 0.04 0.04 0.07
MSLP
1017.35 1016.88 1016.32 1015.77 1015.49 1015.22 1014.95 1014.58 1014.29 1013.92 1013.63 1013.28 1013.07 1012.59 1012.06 1011.85 1010.99 1010.47 1008.36 1007.35 1007.72 1008.60 1008.79 1008.57 1008.68 1008.62 1008.70 1008.00 1007.55 1007.32 1005.66 1005.29 1005.81 1005.77 1006.63 1007.13 1007.32 1008.02 1008.32 1008.73 1008.91 1009.58 1010.01 1011.45 1012.67
1017.37 1016.88 1016.38 1015.80 1015.33 1015.04 1014.71 1014.39 1014.01 1013.80 1013.50 1013.16 1012.92 1012.52 1011.95 1011.67 1010.23 1008.35 1007.57 1007.69 1007.98 1008.43 1008.05 1007.73 1007.58 1007.89 1007.03 1007.07 1007.16 1006.37 1005.08 1005.66 1006.16 1006.27 1006.39 1006.83 1007.22 1007.90 1008.35 1008.60 1009.29 1009.81 1010.92 1012.14 1012.91
1017.37 1016.92 1016.38 1015.74 1015.25 1014.80 1014.50 1014.15 1013.85 1013.59 1013.43 1013.14 1012.73 1012.35 1011.90 1011.38 1009.12 1006.78 1007.59 1007.87 1008.20 1008.29 1007.42 1007.26 1007.14 1006.95 1005.73 1006.13 1006.35 1006.29 1006.24 1006.42 1006.54 1006.75 1006.42 1006.79 1007.21 1007.51 1007.97 1008.19 1009.05 1009.76 1011.05 1012.08 1012.74
1017.31 1016.93 1016.39 1015.73 1015.12 1014.62 1014.17 1013.97 1013.60 1013.46 1013.19 1012.97 1012.52 1012.10 1011.73 1010.47 1007.63 1007.21 1007.82 1008.13 1008.46 1007.65 1007.46 1007.11 1006.62 1005.42 1004.80 1004.71 1005.49 1005.82 1006.60 1006.57 1006.59 1006.97 1006.80 1006.91 1007.26 1007.36 1007.67 1008.02 1008.98 1009.96 1010.89 1011.74 1012.27
1017.05 1016.69 1016.31 1015.70 1014.98 1014.44 1013.89 1013.62 1013.34 1013.04 1012.90 1012.65 1012.20 1011.84 1011.20 1008.81 1006.78 1007.57 1008.15 1008.51 1008.37 1007.70 1006.97 1006.48 1005.73 1005.34 1004.64 1004.73 1005.05 1005.03 1005.75 1006.48 1006.93 1007.07 1006.75 1007.13 1007.24 1007.34 1007.80 1008.27 1009.13 1010.03 1010.87 1011.40 1011.84
1016.89 1016.48 1016.07 1015.52 1014.92 1014.20 1013.65 1013.31 1012.94 1012.59 1012.42 1012.19 1011.85 1011.69 1009.91 1007.30 1007.03 1007.35 1007.60 1008.12 1007.51 1007.23 1006.80 1006.37 1005.91 1005.84 1004.94 1004.70 1004.52 1004.97 1005.39 1005.82 1006.57 1006.78 1006.80 1006.94 1007.36 1007.32 1007.97 1008.26 1009.06 1009.95 1010.51 1011.00 1011.55
1016.72 1016.32 1015.87 1015.34 1014.72 1014.06 1013.43 1012.93 1012.57 1012.01 1011.78 1011.55 1011.39 1010.84 1008.65 1007.28 1007.08 1007.19 1007.55 1007.58 1007.36 1006.97 1006.49 1006.62 1006.36 1005.74 1005.00 1003.99 1004.61 1004.48 1004.54 1005.29 1005.76 1006.16 1006.33 1006.41 1007.06 1007.07 1007.55 1008.25 1008.76 1009.50 1010.16 1010.63 1011.19
1016.55 1016.08 1015.69 1015.13 1014.53 1013.89 1013.27 1012.72 1012.11 1011.35 1011.07 1010.96 1010.96 1009.85 1007.10 1007.40 1007.02 1007.30 1007.41 1007.54 1007.57 1007.46 1006.95 1006.92 1006.56 1005.73 1004.85 1004.27 1003.73 1003.51 1003.57 1003.11 1004.44 1005.24 1005.83 1005.88 1005.69 1006.51 1007.24 1007.84 1008.33 1008.91 1009.64 1010.34 1010.78
1016.19 1015.75 1015.33 1014.86 1014.30 1013.64 1013.03 1012.47 1011.63 1010.89 1010.69 1010.78 1010.02 1008.48 1006.73 1008.11 1007.08 1006.89 1006.93 1006.54 1007.05 1007.30 1007.26 1007.13 1006.33 1004.83 1003.94 1002.87 1001.96 1002.33 1001.94 1002.52 1003.34 1004.61 1005.02 1005.19 1005.13 1006.20 1007.00 1007.31 1007.75 1008.43 1009.03 1009.75 1010.29
1015.90 1015.47 1014.98 1014.50 1014.03 1013.45 1012.70 1012.01 1011.22 1011.06 1010.57 1009.90 1008.95 1007.88 1006.91 1005.92 1006.20 1006.60 1006.95 1006.75 1006.38 1006.66 1006.60 1006.29 1005.07 1003.75 1002.78 1002.01 1001.72 1002.09 1001.98 1002.04 1002.39 1003.74 1004.45 1004.73 1004.96 1005.72 1006.47 1006.77 1007.18 1007.90 1008.49 1009.11 1009.48
1015.49 1014.96 1014.57 1014.13 1013.73 1013.38 1012.49 1010.60 1010.67 1009.69 1008.59 1006.74 1006.32 1006.05 1005.60 1005.75 1006.18 1006.17 1006.53 1006.31 1005.93 1005.65 1004.76 1005.01 1004.00 1002.61 1002.65 1002.80 1002.64 1002.34 1002.08 1001.75 1002.25 1002.94 1003.72 1004.04 1004.58 1005.30 1005.88 1006.25 1006.61 1007.26 1007.81 1008.33 1008.71
1015.14 1014.54 1014.09 1013.76 1013.39 1013.05 1012.47 1009.36 1009.17 1009.14 1007.02 1006.48 1006.35 1006.15 1005.85 1005.66 1005.09 1005.65 1006.14 1005.63 1005.15 1004.22 1004.32 1004.51 1003.25 1003.03 1003.37 1002.93 1002.48 1002.05 1001.60 1001.38 1002.02 1002.48 1003.02 1003.31 1003.83 1004.53 1005.33 1005.67 1005.92 1006.53 1007.07 1007.57 1008.09
1014.42 1014.12 1013.79 1013.38 1012.98 1012.36 1010.28 1009.17 1009.21 1008.87 1006.78 1005.93 1005.53 1005.08 1004.93 1005.21 1004.11 1004.58 1005.20 1004.71 1004.25 1003.64 1003.70 1003.10 1002.84 1003.57 1003.26 1002.58 1001.94 1001.26 1001.42 1001.59 1001.59 1002.16 1002.24 1002.43 1002.49 1003.61 1004.57 1005.24 1005.70 1006.17 1006.51 1006.88 1007.32
1014.13 1013.81 1013.50 1012.97 1012.83 1010.60 1009.29 1009.39 1009.16 1008.80 1005.73 1005.25 1004.71 1004.46 1004.80 1004.47 1003.94 1004.26 1004.38 1004.04 1003.83 1003.29 1003.50 1003.14 1002.95 1003.36 1002.90 1002.41 1002.13 1000.83 1001.85 1001.66 1001.65 1001.15 1000.72 1001.78 1000.91 1002.40 1003.36 1004.27 1004.89 1005.40 1005.93 1006.26 1006.76
1013.64 1013.36 1013.22 1013.23 1011.31 1009.62 1009.51 1009.32 1008.96 1008.24 1004.33 1004.43 1004.20 1004.60 1004.10 1003.68 1003.67 1004.21 1004.35 1004.13 1003.24 1003.33 1003.84 1002.76 1003.10 1003.03 1002.48 1002.05 1002.20 1001.54 1002.00 1001.63 1001.17 1000.43 1000.26 1000.92 1000.49 1001.62 1002.32 1003.00 1003.66 1004.38 1004.97 1005.85 1006.43
1013.17 1013.02 1012.98 1012.28 1011.19 1009.72 1009.63 1009.25 1008.56 1006.21 1003.92 1003.58 1003.76 1003.70 1003.49 1003.22 1003.22 1003.86 1004.17 1004.11 1003.88 1003.62 1003.55 1002.98 1003.51 1003.36 1002.48 1002.28 1002.30 1002.14 1001.70 1001.11 1000.45 999.79 998.89 1000.15 999.87 999.36 1000.78 1001.18 1002.06 1003.20 1004.00 1004.87 1005.72
1012.82 1012.74 1012.71 1011.27 1009.38 1009.79 1009.49 1008.21 1005.79 1003.51 1003.95 1003.30 1002.78 1002.97 1002.59 1002.84 1003.01 1003.13 1003.39 1003.44 1002.94 1002.87 1002.34 1002.26 1002.49 1002.65 1002.80 1002.19 1001.74 1001.87 1000.48 999.27 998.92 998.53 998.63 999.92 999.52 999.15 999.95 1000.51 1000.79 1001.84 1003.07 1004.12 1005.01
1012.46 1012.32 1011.80 1010.52 1009.89 1009.78 1008.43 1006.30 1004.07 1003.81 1002.95 1003.19 1002.63 1002.54 1002.42 1002.70 1002.90 1003.06 1002.99 1002.82 1003.43 1003.01 1002.02 1001.30 1001.42 1001.82 1001.85 1001.77 1000.78 1000.59 1000.26 999.49 998.96 998.43 998.58 999.63 998.77 999.35 999.91 1000.20 1000.71 1001.00 1002.06 1003.33 1004.18
1012.34 1011.02 1009.95 1009.45 1009.70 1009.43 1007.14 1004.21 1004.14 1003.86 1003.61 1002.68 1002.49 1002.14 1002.54 1002.91 1002.76 1002.80 1002.83 1002.64 1002.78 1002.90 1002.39 1001.50 1001.24 1001.94 1002.09 1001.79 1001.73 1000.41 1000.24 1000.04 999.27 999.55 999.15 998.92 999.09 999.56 1000.07 1000.40 1000.67 1001.03 1001.76 1002.72 1003.51
1010.88 1009.15 1008.63 1009.18 1009.27 1008.20 1005.48 1004.75 1004.33 1004.47 1003.93 1003.29 1002.13 1002.26 1002.08 1002.61 1002.74 1002.55 1003.03 1003.76 1003.45 1003.70 1003.30 1002.06 1001.48 1001.64 1002.00 1001.98 1001.86 1001.09 1000.88 999.85 999.46 999.21 998.95 999.06 999.71 1000.51 1001.40 1001.75 1001.44 1001.44 1001.85 1002.51 1003.34
1010.25 1007.56 1008.40 1008.70 1008.67 1006.21 1004.82 1005.16 1004.81 1004.49 1004.20 1003.16 1002.88 1002.84 1003.06 1003.02 1002.73 1002.80 1003.42 1004.04 1004.16 1003.82 1003.94 1002.55 1001.70 1001.56 1001.73 1001.30 1000.75 1001.13 1000.30 1000.13 999.73 1000.00 999.39 999.70 1000.52 1002.49 1002.84 1003.02 1002.87 1002.45 1002.16 1002.24 1002.78
1008.90 1006.62 1007.67 1008.04 1006.27 1005.87 1005.42 1005.93 1005.55 1004.61 1004.21 1003.99 1003.90 1003.85 1003.81 1003.85 1003.55 1003.56 1003.65 1004.10 1004.81 1004.37 1003.57 1003.32 1001.67 1001.01 1001.52 1002.23 1002.05 1001.37 1000.67 1000.08 999.20 1000.21 1000.58 1000.97 1001.81 1003.53 1004.22 1004.14 1004.11 1003.63 1003.32 1002.82 1002.70
1008.45 1007.34 1006.87 1006.43 1005.50 1005.68 1006.27 1006.04 1005.88 1005.12 1005.10 1004.74 1004.72 1004.83 1004.75 1004.52 1004.40 1004.31 1004.60 1005.11 1005.10 1004.47 1003.85 1003.39 1002.18 1001.37 1001.65 1002.00 1002.01 1001.16 1001.34 1001.10 1000.52 1000.41 1000.58 1001.30 1002.07 1003.32 1004.79 1005.11 1005.20 1004.98 1004.44 1003.81 1003.69
1008.96 1007.02 1006.74 1006.74 1007.39 1006.32 1006.10 1006.25 1006.06 1006.40 1006.05 1005.88 1005.65 1005.41 1005.14 1004.99 1004.99 1004.88 1004.76 1005.20 1005.40 1005.14 1005.16 1004.50 1002.28 1001.30 1000.82 1000.90 1000.73 1001.49 1001.74 1001.84 1001.15 1000.56 1000.73 1001.53 1002.16 1003.56 1005.68 1006.37 1006.49 1006.08 1005.31 1004.70 1004.31
1010.05 1009.57 1009.74 1007.78 1007.73 1007.37 1007.02 1007.26 1006.74 1006.64 1006.76 1006.69 1006.32 1006.27 1006.01 1005.47 1005.42 1005.40 1005.31 1005.10 1005.37 1005.41 1004.94 1003.84 1002.32 1002.64 1002.32 1002.11 1002.01 1001.92 1001.96 1002.17 1001.85 1002.25 1002.40 1002.63 1003.52 1005.61 1007.06 1007.84 1008.59 1008.48 1007.54 1006.28 1005.64
1011.20 1010.94 1010.41 1009.49 1009.11 1008.28 1008.41 1008.27 1008.00 1007.92 1007.82 1007.35 1007.21 1007.26 1007.00 1006.61 1006.88 1006.48 1006.40 1005.69 1005.53 1005.54 1004.85 1003.96 1003.26 1003.25 1002.69 1002.93 1002.73 1002.39 1002.72 1002.80 1002.99 1003.24 1003.35 1003.96 1004.53 1006.81 1008.11 1009.06 1009.97 1009.78 1009.13 1008.77 1008.33
1013.34 1012.86 1011.86 1010.47 1009.28 1008.88 1009.27 1009.37 1009.26 1009.23 1009.03 1008.83 1008.61 1008.10 1007.74 1007.96 1008.24 1007.86 1007.39 1006.95 1006.57 1006.42 1005.65 1004.81 1003.70 1003.49 1002.68 1003.37 1003.38 1003.08 1002.80 1003.20 1003.71 1004.23 1004.35 1004.29 1006.33 1007.37 1008.46 1009.47 1010.45 1010.23 1009.96 1009.88 1009.60
Thickness
5788 5792 5796 5801 5802 5804 5805 5808 5810 5811 5813 5815 5815 5819 5823 5824 5829 5833 5837 5850 5846 5838 5835 5833 5827 5822 5820 5815 5822 5821 5805 5793 5792 5797 5792 5809 5799 5807 5812 5798 5802 5798 5792 5786 5783
5786 5790 5794 5800 5803 5805 5807 5809 5811 5812 5814 5816 5817 5820 5825 5826 5836 5842 5853 5851 5846 5840 5837 5829 5822 5822 5820 5818 5817 5813 5811 5800 5811 5811 5805 5810 5806 5802 5798 5796 5790 5791 5791 5786 5781
5785 5787 5792 5798 5802 5805 5808 5810 5812 5813 5815 5817 5819 5821 5825 5828 5838 5851 5854 5850 5846 5843 5847 5842 5838 5830 5827 5828 5820 5815 5795 5807 5810 5814 5818 5810 5807 5814 5801 5792 5795 5787 5784 5782 5779
5783 5785 5790 5796 5801 5805 5808 5810 5813 5814 5815 5817 5820 5823 5826 5836 5825 5856 5853 5849 5845 5849 5844 5837 5835 5832 5829 5824 5831 5805 5809 5811 5814 5815 5814 5806 5814 5807 5809 5807 5811 5803 5797 5788 5783
5782 5785 5788 5793 5799 5804 5808 5811 5813 5815 5817 5818 5821 5824 5831 5839 5846 5856 5851 5846 5846 5847 5841 5837 5835 5834 5826 5831 5830 5820 5818 5816 5815 5814 5818 5816 5807 5807 5806 5817 5815 5807 5799 5792 5790
5780 5783 5786 5791 5796 5802 5806 5809 5814 5817 5818 5820 5822 5823 5836 5833 5859 5857 5855 5849 5851 5847 5844 5846 5840 5842 5837 5834 5831 5833 5827 5824 5819 5815 5818 5808 5806 5813 5810 5821 5811 5805 5800 5800 5795
5777 5780 5783 5787 5792 5798 5804 5808 5813 5818 5820 5822 5823 5828 5836 5838 5858 5857 5855 5850 5854 5851 5841 5849 5850 5842 5845 5839 5846 5840 5823 5824 5823 5822 5816 5823 5798 5801 5819 5818 5810 5806 5804 5804 5801
5773 5776 5779 5783 5788 5793 5799 5805 5811 5819 5822 5824 5824 5831 5837 5852 5856 5853 5854 5848 5853 5853 5850 5852 5854 5847 5845 5855 5849 5836 5836 5823 5833 5830 5826 5824 5797 5815 5825 5817 5810 5811 5808 5805 5805
5769 5773 5775 5779 5783 5789 5794 5800 5809 5816 5819 5820 5829 5833 5832 5844 5841 5853 5855 5846 5847 5848 5848 5850 5849 5846 5854 5845 5846 5844 5826 5828 5830 5838 5830 5826 5812 5822 5828 5822 5814 5813 5812 5809 5808
5765 5768 5771 5775 5779 5783 5790 5796 5804 5808 5815 5821 5828 5821 5834 5836 5846 5848 5853 5850 5842 5839 5835 5837 5843 5840 5850 5846 5814 5820 5825 5836 5831 5836 5832 5822 5820 5826 5828 5824 5819 5816 5815 5812 5813
5761 5765 5767 5770 5773 5775 5785 5801 5802 5807 5816 5827 5830 5827 5836 5847 5850 5842 5847 5842 5843 5837 5826 5837 5827 5828 5837 5842 5842 5839 5833 5834 5842 5849 5833 5827 5824 5825 5830 5829 5824 5820 5819 5817 5818
5758 5762 5764 5766 5768 5771 5777 5801 5799 5802 5806 5823 5823 5825 5836 5842 5828 5834 5847 5827 5827 5822 5834 5824 5821 5843 5843 5845 5841 5841 5835 5839 5846 5851 5841 5834 5826 5834 5833 5831 5833 5827 5825 5824 5824
5761 5761 5762 5763 5765 5771 5788 5793 5798 5802 5800 5810 5822 5824 5830 5835 5832 5830 5840 5836 5826 5824 5824 5822 5834 5841 5837 5838 5837 5846 5836 5835 5837 5845 5851 5841 5833 5829 5837 5837 5837 5836 5836 5834 5830
5760 5761 5761 5762 5764 5779 5784 5789 5794 5798 5796 5795 5809 5821 5827 5833 5823 5846 5850 5839 5828 5821 5824 5826 5844 5831 5833 5831 5839 5839 5846 5844 5837 5839 5828 5848 5824 5832 5836 5831 5833 5834 5834 5835 5835
5761 5761 5759 5755 5771 5777 5779 5785 5791 5791 5770 5800 5805 5833 5832 5824 5830 5826 5849 5836 5822 5821 5820 5821 5824 5824 5826 5834 5842 5833 5845 5841 5843 5846 5846 5837 5835 5830 5845 5829 5833 5837 5839 5837 5838
5763 5761 5757 5760 5765 5775 5776 5782 5785 5774 5751 5789 5806 5806 5810 5823 5825 5829 5827 5841 5839 5822 5825 5826 5838 5832 5837 5845 5843 5847 5839 5844 5851 5852 5834 5838 5840 5848 5841 5849 5849 5848 5846 5845 5843
5765 5762 5759 5765 5775 5773 5777 5781 5774 5772 5794 5784 5795 5808 5813 5807 5812 5820 5814 5812 5811 5798 5805 5824 5825 5839 5841 5829 5847 5838 5841 5827 5822 5831 5826 5847 5840 5851 5865 5868 5869 5858 5853 5850 5849
5766 5765 5767 5772 5775 5776 5783 5780 5762 5780 5788 5802 5805 5809 5799 5809 5808 5811 5810 5806 5817 5816 5813 5810 5800 5829 5846 5835 5837 5842 5842 5824 5793 5815 5832 5847 5836 5846 5875 5880 5878 5877 5870 5860 5854
5768 5777 5779 5782 5779 5782 5784 5779 5771 5781 5793 5798 5804 5797 5794 5803 5808 5809 5809 5810 5819 5824 5802 5808 5809 5836 5837 5845 5842 5843 5829 5854 5837 5840 5827 5846 5859 5871 5876 5872 5874 5872 5868 5860 5859
5784 5790 5787 5786 5785 5789 5793 5768 5783 5793 5798 5801 5791 5803 5791 5796 5799 5807 5803 5809 5809 5818 5827 5821 5801 5831 5833 5844 5843 5841 5849 5829 5838 5801 5801 5834 5836 5827 5840 5844 5862 5864 5863 5863 5861
5788 5792 5793 5792 5791 5798 5779 5774 5786 5802 5803 5801 5796 5794 5794 5793 5804 5801 5797 5806 5811 5814 5817 5825 5821 5815 5832 5829 5831 5831 5834 5839 5844 5832 5813 5809 5826 5839 5836 5842 5845 5858 5866 5869 5867
5797 5785 5801 5800 5792 5790 5779 5775 5775 5796 5807 5802 5802 5796 5791 5793 5793 5794 5794 5802 5811 5813 5805 5818 5827 5810 5811 5829 5839 5839 5834 5845 5832 5808 5823 5822 5822 5839 5835 5843 5846 5851 5858 5869 5872
5789 5788 5809 5807 5779 5778 5779 5779 5785 5788 5788 5791 5787 5793 5796 5787 5779 5791 5792 5805 5809 5810 5810 5818 5815 5796 5801 5819 5831 5829 5832 5836 5843 5842 5817 5805 5818 5844 5835 5836 5840 5840 5851 5860 5862
5787 5779 5791 5794 5782 5782 5776 5772 5773 5786 5784 5788 5786 5793 5789 5784 5793 5783 5790 5800 5806 5807 5793 5807 5819 5815 5807 5814 5834 5812 5819 5824 5831 5822 5821 5821 5823 5822 5816 5816 5826 5835 5847 5854 5858
5777 5762 5761 5766 5768 5774 5777 5770 5768 5766 5781 5784 5777 5778 5776 5772 5779 5777 5789 5796 5802 5802 5805 5815 5804 5806 5811 5816 5819 5816 5814 5815 5815 5813 5799 5810 5809 5802 5802 5805 5803 5811 5825 5839 5844
5763 5759 5763 5762 5763 5767 5759 5758 5759 5762 5765 5764 5764 5769 5773 5768 5766 5764 5774 5784 5784 5797 5800 5813 5793 5800 5796 5806 5809 5805 5808 5810 5807 5803 5805 5804 5800 5801 5799 5797 5786 5793 5804 5806 5808
5750 5752 5751 5740 5761 5760 5752 5751 5751 5756 5761 5762 5760 5761 5762 5765 5767 5773 5780 5783 5785 5777 5782 5790 5796 5788 5783 5795 5795 5782 5802 5803 5799 5797 5797 5788 5782 5792 5785 5783 5776 5788 5796 5796 5801